sat.trackr.live / text

‹ back to catalog

FALCON EYE 2

NORAD 47226 · 2020-090A

PAYLOAD ACTIVE UNKNOWN

§ Identity

Operator
Country
UAE
Launch date
2020-12-02
Launch site
FRGUI
Launch vehicle
Mass (kg)
RCS (m²)

External: N2YO · Heavens-Above · Gunter

§ Orbital elements

Epoch: 2026-09-15T22:29:53.024928Z

Period
96.98 min
Inclination
97.8510°
Eccentricity
0.0001312
Mean motion
14.84912350 rev/d
Perigee alt
612.9 km
Apogee alt
614.8 km
Semi-major
6,992.0 km
B*
8.6390e-6
RAAN
332.4016°
Arg perigee
75.3834°
Mean anomaly
284.7526°
Rev number
31,370

§ Raw data

FALCON EYE 21 47226U 20090A   26258.93741927  .00000020  00000+0  86390-5 0  99992 47226  97.8510 332.4016 0001312  75.3834 284.7526 14.84912350313704

JSON: /api/v1/satellites/47226 · /tle

For live sub-satellite position, see the globe view (requires WebGL).

§ Visibility from observer

Set your observer location to see the next 7 days of passes ≥ 10°. The values pass through the URL so the page stays shareable.

No JS? Fill the form by hand. The geolocation button needs JavaScript.